Regional Weather Roundup
Issued by NWS

Home | Current Version | Previous Version | Graphics & Text | Print | Product List | Glossary On
Versions: 1 2 3 4 5 6 7 8 9 10 11 12 13 14 15 16 17 18 19 20 21 22 23 24 25 26 27 28 29 30 31 32 33 34 35 36 37 38 39 40 41 42 43 44 45 46 47 48 49 50
000
ASUS43 KLOT 192308
RWRIL

ILLINOIS REGIONAL WEATHER ROUNDUP
NATIONAL WEATHER SERVICE CHICAGO/ROMEOVILLE IL
500 PM CST THU JAN 19 2017

NOTE: "FAIR" INDICATES FEW OR NO CLOUDS BELOW 12,000 FEET WITH NO
SIGNIFICANT WEATHER AND/OR OBSTRUCTIONS TO VISIBILITY.

* THESE STATIONS ARE NOT UNDER NWS QUALITY CONTROL. THEY ALSO MAY NOT
  REPORT WEATHER SUCH AS PRECIPITATION OR FOG.

ILZ001-002-007-009-015-016-024-200000-
NORTHWEST ILLINOIS

CITY           SKY/WX    TMP DP  RH WIND       PRES   REMARKS
MOLINE         RAIN      39  37  92 E12       29.77F FOG     WCI  32
STERLING*      LGT RAIN  36  36 100 E8        29.81F FOG     WCI  30
SAVANNA*       LGT RAIN  37  37  97 E6        29.82F WCI  33
$$

ILZ003-004-008-010-011-017-018-200000-
NORTH CENTRAL ILLINOIS

CITY           SKY/WX    TMP DP  RH WIND       PRES   REMARKS
ROCKFORD       LGT RAIN  39  36  89 E6        29.84F FOG     WCI  35
FREEPORT*      LGT RAIN  35  35  99 E6        29.84F VSB 1   WCI  30
ROCHELLE*      CLOUDY    37  37  98 E10       29.83F FOG     WCI  30
DE KALB*       LGT RAIN  37  37  99 E7        29.84F WCI  32
$$

ILZ005-006-012>014-019>023-200000-
NORTHEAST ILLINOIS

CITY           SKY/WX    TMP DP  RH WIND       PRES   REMARKS
CHICAGO-OHARE  LGT RAIN  39  36  89 E7        29.86F FOG     WCI  34
CHICAGO-MIDWAY LGT RAIN  39  35  86 E8        29.87S FOG     WCI  33
AURORA         LGT RAIN  40  37  89 NE7       29.83F FOG
LANSING*       LGT RAIN  39  38  96 E6        29.87F WCI  35
JOLIET*        RAIN      40  39  96 E6        29.85F
WAUKEGAN       CLOUDY    36  35  96 SE7       29.86F FOG     WCI  30
DUPAGE AIRPORT LGT RAIN  40  35  83 E6        29.85S
KANKAKEE*      LGT RAIN  40  38  96 E13       29.83F
WHEELING       CLOUDY    39  35  86 SE6       29.88F WCI  35
MORRIS*        RAIN      39  37  95 E6        29.82F WCI  34
ROMEOVILLE*    RAIN      38  38 100 E6        29.84F WCI  34
NORTHERLY ISL    N/A     35  33  92 CALM        N/A
$$

LMZ740>746-200000-
SOUTHERN LAKE MICHIGAN

STATION/POSITION SKY/WX   TEMP    WIND        PRES    VSBY  WAVE
                          AIR SEA DIR/SP/G                  HT/PER
                          (F)     (DEG/KT/KT) (MB)    (MI)  (FT/S)
HARRISON CRIB              38     110/  8/  9   N/A
BURNHAM HARBOR             35      CALM  /  4   N/A
CALUMET HARBOR             36      80/  4/  7 1011.3R
BURNS HARBOR               40     100/  5/ 11 1012.2F
MICHIGAN CITY              39     120/  5/  6   N/A
$$

ILZ025>027-034>036-040-047-049-050-058-095>099-200000-
WEST-CENTRAL ILLINOIS

CITY           SKY/WX    TMP DP  RH WIND       PRES   REMARKS
QUINCY         CLOUDY    44  43  96 E7        29.70F FOG
GALESBURG*     LGT RAIN  40  40 100 E10       29.74F
MACOMB*        CLOUDY    41  41 100 E10       29.76F FOG
JACKSONVILLE*  CLOUDY    43  42  98 E9        29.72F FOG
PITTSFIELD*    FOG       45  44  99 E6        29.72S VSB 1/2
$$

ILZ028>032-037-038-041>044-048-051>054-059>061-200000-
CENTRAL ILLINOIS

CITY           SKY/WX    TMP DP  RH WIND       PRES   REMARKS
PONTIAC        RAIN      40  40 100 E12       29.82S
BLOOMINGTON    RAIN      40  39  97 E9        29.80S FOG
DECATUR        LGT RAIN  42  42 100 E9        29.76F FOG
PEORIA         CLOUDY    42  41  96 E9        29.77F FOG
LACON*         HVY RAIN  39  38  99 E5        29.80S
LINCOLN*       HVY RAIN  43  43 100 E8        29.75F
SPRINGFIELD    CLOUDY    45  42  89 E9        29.74F FOG
TAYLORVILLE    CLOUDY    42  42  99 E9        29.73F FOG
$$

ILZ033-039-045-046-055>057-062-063-200000-
EAST-CENTRAL ILLINOIS

CITY           SKY/WX    TMP DP  RH WIND       PRES   REMARKS
CHAMPAIGN      CLOUDY    42  39  89 E16       29.77F
RANTOUL*       CLOUDY    43  42  97 E13       29.79F
MATTOON        CLOUDY    43  41  93 E9        29.75F
PARIS*         LGT RAIN  43  42  97 E9        29.80F
$$

ILZ079-100>102-200000-
SOUTHWEST ILLINOIS

CITY           SKY/WX    TMP DP  RH WIND       PRES   REMARKS
ALTON          FOG       45  45 100 E9        29.72S VSB 3/4
BELLEVILLE     FOG       46  46 100 E3        29.70F VSB 1/4
CAHOKIA*       FOG       47  45  93 E5        29.71F VSB 1/2
SPARTA*        FOG       46  46 100 E5        29.72F VSB<1/4
$$

ILZ064>066-069>071-074>076-080>082-084>086-088>090-092>094-200000-
SOUTH-CENTRAL ILLINOIS

CITY           SKY/WX    TMP DP  RH WIND       PRES   REMARKS
CARBONDALE     FOG       49  49 100 CALM      29.71S VSB 1/2
CAIRO*         LGT RAIN  54  54 100 SE5       29.71F
EFFINGHAM*     CLOUDY    44  44 100 E9        29.76F FOG
MARION         FOG       50  50 100 CALM      29.72F VSB 1/2
MT. VERNON     CLOUDY    47  46  97 NE5       29.73F FOG
CENTRALIA*     CLOUDY    47  47 100 E3        29.72S FOG
SALEM*         CLOUDY    47  45  94 E3        29.73F FOG
METROPOLIS*    DRIZZLE   55  55  98 CALM      29.73F
$$

ILZ067-068-072-073-078-083-087-091-200000-
SOUTHEAST ILLINOIS

CITY           SKY/WX    TMP DP  RH WIND       PRES   REMARKS
LAWRENCEVILLE  LGT RAIN  47  46  97 E9        29.78S
FLORA*         DRIZZLE   47  46  96 E6        29.74F
FAIRFIELD*     DRIZZLE   47  47  99 E3        29.73S
HARRISBURG*    LGT RAIN  50  50 100 E8        29.73S
ROBINSON*      RAIN      45  43  95 E8        29.78F
CARMI*         DRIZZLE   50  50 100 SE7       29.74S
$$

ABBREVIATIONS USED IN REMARKS
   TC - TEMPERATURE IN CELSIUS
  WCI - WIND CHILL INDEX
   HX - HEAT INDEX
  VSB - VISIBILITY
$$




USA.gov is the U.S. government's official web portal to all federal, state and local government web resources and services.